Dati Storici

Data ora Umidita' aria (%) Temperatura aria (°C) Rad globale (W/m²) Gonioanemometro (°) Tacoanemometro (m/s) Pioggia (mm)
16-06-2020 20:50 67.2 % 22.796 -54.234 -0.017 0 0
16-06-2020 20:40 66 % 22.83 -52.446 0.423 0 0
16-06-2020 20:30 62.5 % 23.465 -46.859 -0.024 0 0
16-06-2020 20:20 62.2 % 23.459 4.348 -0.02 0 0
16-06-2020 20:10 63.3 % 23.528 -49.133 -0.026 0 0
16-06-2020 20:00 62.7 % 23.589 -37.837 0.16 0 0
16-06-2020 19:50 62 % 23.653 -28.896 1.289 0 0
16-06-2020 19:40 61.3 % 23.703 -42.293 1.507 0 0
16-06-2020 19:30 59.5 % 23.892 -53.909 0.861 0 0
16-06-2020 19:20 58 % 23.938 -48.892 2.191 0 0
16-06-2020 19:10 58.7 % 24.049 -56.736 0.145 0 0
16-06-2020 19:00 58.7 % 24.013 -65.386 1.512 0 0
16-06-2020 18:50 58.3 % 24.108 -55.438 0.781 0 0
16-06-2020 18:40 57 % 24.122 -67.74 1.44 0 0
16-06-2020 18:30 55.6 % 24.231 -58.044 0.957 0 0
16-06-2020 18:20 54.3 % 24.363 -63.935 1.304 0 0
16-06-2020 18:10 51.8 % 24.806 -70.194 3.325 0 0
16-06-2020 18:00 51.2 % 25.158 -57.251 -0.035 0 0
16-06-2020 17:50 56.2 % 25.684 -64.532 0.626 0 0
16-06-2020 17:40 52.1 % 25.983 -63.935 1.756 0 0

I dati sono presentati in modo automatico a scopo informativo. In seguito a verifica i dati possono subire modifiche o essere invalidati e non riportati negli archivi definitivi.